This is the latest recevied weather packets stored in our database for station/object OE2ATN. If no packets are shown the sender has not sent any weather packets the latest 10 day(s).
| Time | Temp. | Humidity | Pressure | Rain* | Wind** | Luminosity | Snow |
|---|---|---|---|---|---|---|---|
| 1777616348 | 3.89° C | 71% | 1035.7 hPa | 0 mm | - | - | - |
| 1777616048 | 3.33° C | 69% | 1035.6 hPa | 0 mm | - | - | - |
| 1777615748 | 3.89° C | 69% | 1035.7 hPa | 0 mm | - | - | - |
| 1777615448 | 3.33° C | 70% | 1035.7 hPa | 0 mm | - | - | - |
| 1777615147 | 3.33° C | 69% | 1035.7 hPa | 0 mm | - | - | - |
| 1777614847 | 3.33° C | 66% | 1035.6 hPa | 0 mm | - | - | - |
| 1777614548 | 4.44° C | 63% | 1035.6 hPa | 0 mm | - | - | - |
| 1777614247 | 6.11° C | 64% | 1035.7 hPa | 0 mm | - | - | - |
| 1777613947 | 5.56° C | 68% | 1035.7 hPa | 0 mm | - | - | - |
| 1777613647 | 4.44° C | 70% | 1035.7 hPa | 0 mm | - | - | - |
| 1777613347 | 3.89° C | 73% | 1035.7 hPa | 0 mm | - | - | - |
| 1777613046 | 2.78° C | 77% | 1035.8 hPa | 0 mm | - | - | - |
| 1777612747 | 1.67° C | 77% | 1035.8 hPa | 0 mm | - | - | - |
| 1777612448 | 1.67° C | 77% | 1035.8 hPa | 0 mm | - | - | - |
| 1777612147 | 0.56° C | 73% | 1035.7 hPa | 0 mm | - | - | - |
| 1777611847 | 0° C | 74% | 1035.7 hPa | 0 mm | - | - | - |
| 1777611547 | -0.56° C | 75% | 1035.6 hPa | 0 mm | - | - | - |
| 1777611246 | -0.56° C | 75% | 1035.6 hPa | 0 mm | - | - | - |
| 1777610947 | -0.56° C | 75% | 1035.6 hPa | 0 mm | - | - | - |
| 1777610647 | -0.56° C | 75% | 1035.5 hPa | 0 mm | - | - | - |
| 1777610346 | -0.56° C | 76% | 1035.3 hPa | 0 mm | - | - | - |
| 1777610046 | -0.56° C | 77% | 1035.3 hPa | 0 mm | - | - | - |
| 1777609747 | -0.56° C | 77% | 1035.2 hPa | 0 mm | - | - | - |
| 1777609446 | -0.56° C | 77% | 1035.2 hPa | 0 mm | - | - | - |
| 1777609146 | -0.56° C | 77% | 1035.1 hPa | 0 mm | - | - | - |
* Rain latest hour (hover to see other rain measurements)
** Current wind speed in m/s (hover to see current wind gust speed)